{"data":{"norad_id":57857,"epoch":"2026-09-20T05:05:56.183712Z","epoch_age_seconds":159571,"freshness":"FRESH","line1":"1 57857U 23141T   26263.21245583  .00000605  00000+0  31257-4 0  9994","line2":"2 57857  53.1596  73.6745 0001166  95.5201 264.5933 15.31702228170484","mean_motion":15.31702228,"eccentricity":0.0001166,"inclination_deg":53.1596,"raan_deg":73.6745,"arg_perigee_deg":95.5201,"mean_anomaly_deg":264.5933,"bstar":3.1257e-5,"rev_number":17048,"period_min":94.013051210369,"perigee_km":469.93477539839,"apogee_km":471.53193196487,"semimajor_km":6848.8703536816,"source":"CELESTRAK","updated_at":"2026-09-21T09:00:33.714693Z"}}